Regional Weather Roundup
Issued by NWS

Home | Current Version | Previous Version | Text Only | Print | Product List | Glossary On
Versions: 1 2 3 4 5 6 7 8 9 10 11 12 13 14 15 16 17 18 19 20 21 22 23 24 25 26 27
000
ASPQ40 PGUM 270512
RWRPQ
WEATHER ROUNDUP FOR THE MARIANAS AND MICRONESIA
NATIONAL WEATHER SERVICE TIYAN GU
300 PM CHST MON MAR 27 2017

GUZ001>004-270600-
MARIANA ISLANDS-

CITY           SKY/WX    TMP DP  RH WIND       PRES   REMARKS
GUAM AIRPORT   MOSUNNY   88  75  66 NE17      29.91F HX  97
ANDERSEN AFB   PTSUNNY   82  75  78 NE16      29.93F
ROTA AIRPORT   MOSUNNY   82  75  78 NE13      29.93F
TINIAN AP      MOSUNNY   84  73  70 E14       29.91F HX  91
SAIPAN AP      MOSUNNY   86  73  66 NE14      29.93R HX  93

$$

PMZ161-270600-
REPUBLIC OF PALAU-

CITY           SKY/WX    TMP DP  RH WIND       PRES   REMARKS
KOROR AP       PTSUNNY   88  77  70 E12G17    29.85F HX 100
KOROR WSO      PTSUNNY   90  77  66 E8        29.86F HX 102

$$

PMZ171>174-270600-
FEDERATED STATES OF MICRONESIA-

CITY           SKY/WX    TMP DP  RH WIND       PRES   REMARKS
YAP AIRPORT    CLOUDY    86  77  74 NE14      29.84F HX  97
CHUUK AP       PTSUNNY   86  81  84 NE8       29.79S HX 102
POHNPEI AP     NOT AVBL
POHNPEI WSO    CLOUDY    84  75  74 NE3       29.81S HX  92
KOSRAE AP      NOT AVBL

$$

PMZ181-270600-
REPUBLIC OF THE MARSHALL ISLANDS-

CITY           SKY/WX    TMP DP  RH WIND       PRES   REMARKS
KWAJALEIN AP   MOSUNNY   86  75  70 NE20      29.80S HX  95
MAJURO AP      CLOUDY    81  75  83 NE16      29.79S
MAJURO WSO     LGT RAIN  79  75  89 E13       29.78S

$$





USA.gov is the U.S. government's official web portal to all federal, state and local government web resources and services.